Location: Barnston
(51.8500°N, 0.4000°E)
Time: 04:17:47
(UTC+00:00)

Cosmos 2278 - Pass Details

Date: 26 September 2023
Orbit: 838 x 853 km, 71.1° (Epoch: 29 November)

Event Time Altitude Azimuth Distance (km) Brightness Sun altitude
Rises 01:39:07 0° 330° (NNW) 3,429 7.2 -34.3°
Reaches altitude 10° 01:41:39 10° 336° (NNW) 2,491 6.4 -34.1°
Enters shadow 01:46:35 48° 29° (NNE) 1,103 4.5 -33.7°
